EW3309 Weather Reports


Display with metric or nautical units.
time (UTC)temp
F
wind
direction
speed
MPH
gust
MPH
rain 1hr
in
rain 24hr
in
rain mn
in
humidity
%
barometer
mb
20260504023013 62 298 0.0 0.0 0.00 0.00 0.00 67 1013.0
20260504021513 62 304 0.0 0.0 0.00 0.00 0.00 67 1013.1
20260504020012 62 281 0.0 0.0 0.00 0.00 0.00 66 1012.9
20260504014517 62 279 0.0 0.0 0.00 0.00 0.00 65 1012.7
20260504013010 63 295 0.0 0.0 0.00 0.00 0.00 64 1012.8
20260504011510 63 279 0.0 0.0 0.00 0.00 0.00 63 1012.4
20260504010010 64 248 0.0 0.0 0.00 0.00 0.00 62 1012.3
20260504004508 65 259 0.0 0.0 0.00 0.00 0.00 61 1012.0
20260504003008 66 292 0.0 0.0 0.00 0.00 0.00 60 1011.7
20260504001508 68 254 0.0 0.0 0.00 0.00 0.00 57 1011.5
20260504000007 69 247 0.0 0.0 0.00 0.00 0.00 55 1011.3
20260503234508 71 256 0.0 0.0 0.00 0.00 0.00 53 1011.4
20260503233002 71 288 0.0 0.0 0.00 0.00 0.00 53 1011.2
20260503231502 71 250 0.0 0.0 0.00 0.00 0.00 55 1011.4
20260503224557 69 244 0.0 0.0 0.00 0.00 0.00 58 1011.9
20260503223056 68 278 0.0 0.0 0.00 0.00 0.00 59 1011.7
20260503221556 67 298 0.0 0.0 0.00 0.00 0.00 61 1011.8
20260503220058 66 227 0.0 0.0 0.00 0.00 0.00 63 1012.1
20260503214557 66 294 0.0 0.0 0.00 0.00 0.00 63 1012.3
20260503213123 66 271 0.0 0.0 0.00 0.00 0.00 64 1012.3
20260503211618 66 269 0.0 0.0 0.00 0.00 0.00 63 1012.3
20260503210052 67 295 0.0 0.0 0.00 0.00 0.00 63 1012.3
20260503204603 67 256 0.0 0.0 0.00 0.00 0.00 63 1012.2
20260503203051 67 300 0.0 0.0 0.00 0.00 0.00 63 1012.4
20260503201551 68 332 0.0 0.0 0.00 0.00 0.00 64 1012.4
20260503200052 66 296 0.0 0.0 0.00 0.00 0.00 66 1012.7
20260503194549 65 273 0.0 0.0 0.00 0.00 0.00 67 1012.8
20260503193049 65 319 0.0 0.0 0.00 0.00 0.00 68 1012.9
20260503191601 66 298 0.0 0.0 0.00 0.00 0.00 67 1012.8
20260503190051 68 295 0.0 0.0 0.00 0.00 0.00 64 1012.7
20260503184604 71 252 0.0 0.0 0.00 0.00 0.00 59 1012.5
20260503183047 71 180 0.0 0.0 0.00 0.00 0.00 61 1012.6
20260503181543 70 190 0.0 0.0 0.00 0.00 0.00 63 1012.6
20260503180041 70 148 0.0 0.0 0.00 0.00 0.00 65 1012.7
20260503174547 68 173 0.0 0.0 0.00 0.00 0.00 69 1012.9
20260503173033 67 233 0.0 0.0 0.00 0.00 0.00 71 1013.0
20260503171533 66 60 0.0 0.0 0.00 0.00 0.00 74 1013.0
20260503081507 59 227 0.0 0.0 0.00 0.00 0.00 87 1012.1
20260503071614 59 226 0.0 0.0 0.00 0.00 0.00 88 1012.8
20260503070113 59 259 0.0 0.0 0.00 0.00 0.00 88 1012.7
20260503060111 59 245 0.0 0.0 0.00 0.00 0.00 88 1012.6
20260503054559 59 265 0.0 0.0 0.00 0.00 0.00 88 1012.5
20260503053051 59 253 0.0 0.0 0.00 0.00 0.00 88 1012.4
20260503051551 59 266 0.0 0.0 0.00 0.00 0.00 87 1012.1
20260503050044 59 286 0.0 0.0 0.00 0.00 0.00 87 1011.7
20260503044543 59 301 0.0 0.0 0.00 0.00 0.00 86 1011.3
20260503043046 60 302 0.0 0.0 0.00 0.00 0.00 86 1011.1
20260503041543 60 318 0.0 0.0 0.00 0.00 0.00 85 1010.6
20260503040041 60 318 0.0 0.0 0.00 0.00 0.00 85 1010.5
20260503034546 61 315 0.0 0.0 0.00 0.00 0.00 84 1010.3
20260503033053 61 329 0.0 0.0 0.00 0.00 0.00 83 1010.2
20260503031541 62 339 0.0 0.0 0.00 0.00 0.00 82 1009.9
20260503030042 62 329 0.0 0.0 0.00 0.00 0.00 82 1010.0
20260503024546 63 275 0.0 0.0 0.00 0.00 0.00 81 1009.9